OPS 4682 DEB, 26732

Orbit data source: Space-Track

OPS 4682 DEB, 26732 is space debris in LEO originally from a launch on Sat, 03 Apr 1965 UTC launched from the Air Force Western Test Range (AFWTR). Debris objects in space refer to the collection of defunct objects orbiting the Earth. Examples of debris include non-operational satellites, rocket bodies, and fragments generated from explosions, collisions, or faulty payload assembly.

Loading next visibility...
Identifier
26732, 1965-027BF
Orbit
LEO
Country
Flag of USUS
Related business
Manufacturer
Unknown
Mission
Spacecraft
Bus & Motor
Unknown
Mass
Unknown
Launch date (UTC)
1965-04-03 (61 years ago)
Launch vehicle
Unknown
Launch site
Air Force Western Test Range (AFWTR)
Object type
Payload
Rocket body
Debris
Shape & HBR
Unknown shape, 0.1 m
Radar Cross Section
Medium (>0.1 m² and <1 m²)

Expand to show TLE details & history
Last TLE update: 1 day ago

TLE from 1 day ago
0 OPS 4682 DEB
1 26732U 65027BF  26262.62485234  .00001248  00000-0  43311-2 0  9991
2 26732  90.2623  13.3771 0059085 294.5750 132.4177 12.96060287507407
Epoch: 2026-09-19T14:59Z
TLE epoch observation values (Epoch: 2026-09-19T14:59:47.242Z)
Latitude
67.56228°
Longitude
149.2675°
Altitude
1,319.993 km
Speed
7.189 km/s
True Right ascension
00h 50m 58s
True Declination
67° 26' 58"
Sunlit
Object was in daylight at epoch
Visualization orbit readout
Latitude
Unknown
Longitude
Unknown
Altitude
Unknown
Speed
Unknown
Apparent Right ascension
Unknown
Apparent Declination
Unknown
Sunlit
N/A
Visualization observer readout
Local Sidereal Time
08:48:38
Azimuth
Unknown
Elevation
Unknown
Doppler factor
Unknown
Orbital elements
Apogee altitude
1,319.911 km
Perigee altitude
1,229.478 km
Semi-major axis
7,652.831 km
Eccentricity
0.00591
Inclination
90.2623°
RAAN
13.3771°
Arg. of periapsis
294.575°
True anomaly
132.91506°
Mean anomaly
132.4177°
Eccentric anomaly
132.66663°
Mean motion
3.24198 °/min
Orbital period
111.04 mins
BSTAR
0.0043311
Loading maneuver chart data...
Computing Atmospheric mass density...
Loading historical data...
Loading historical data...
Loading historical data...
Loading historical data...
Loading historical data...
Loading historical data...
Loading historical data...

Documentation

Showing up to 5 results
|